[Date Prev][Date Next][Thread Prev][Thread Next][Date Index][Thread Index]

[jamsat-news:1629] jas2info #254



========================   最新情報   ==============================

        Last updated :8Dec.2001  14:00(JST)   #254

====================================================================
   
1)アマチュア通信衛星情報、FOシリーズの軌道要素、テレメトリ、QSOの
   状況等をまとめてみました.
   
 FO−29の2001年12月8日(土)の9:15(JST)のパスでは
JARLのホームページのとうりアナログ運用でした。 今日までの観測した
テレメトリーと最終の分析結果を報告しておきます。

AS26215C  08Dec2001
9:19-9:24(JST)
FREQ. 435.795-.792MHz

HI HI AE C7 88 55 00 D4 C0 53 09 03 9E 7A 7C 64 9D 99 B1 78 93 94 93 91 93 
HI HI AE C7 88 55 00 D4 C0 53 09 03 9E 77 7A 64 9E 99 B1 65 9E 94 93 91 93 
HI HI AE C7 88 55 00 D4 C0 53 09 03 9F 75 77 64 9D 9A B0 6F 93 94 93 91 93 
HI HI AE C7 88 55 00 D4 C0 53 09 03 9C 72 75 64 9E 9A B0 7A 93 94 93 91 93 
HI HI AE C7 88 55 00 D4 C0 53 09 03 96 70 70 64 9E 9A B0 A9 93 94 93 90 93 
HI HI AE C7 88 55 00 D4 C0 53 09 03 8B 6F 6E 64 9E 9A B0 95 93 93 93 99 93 
 
AS26207C  07Dec2001
19:34-19:54(JST)
FREQ.  435.803-.786MHz

HI HI AE 07 88 55 00 D4 00 00 09 00 53 93 00 88 89 88 94 74 91 8E 90 93 8F 
HI HI AE 07 88 55 00 D4 00 00 09 00 5A 97 00 89 89 88 94 84 91 8E 90 93 8F 
HI HI AE 07 88 55 00 D4 00 00 09 00 68 9A 00 89 89 88 94 75 91 8E 90 93 8F 
HI HI AE 07 88 55 00 D4 00 00 09 00    9B 00 88 88 88 93 6D 92 8E 90 93 8F 
HI HI AE 07 88 55 00 D4 00 00 09 00 72 9D 00 88 88 87 93 6C 92 8E 90 93 8F 
HI HI AE 07 88 55 00 D4 00 00 09 00 7A 9D 00 87 88 87 93 7B 92 8F 91 93 8F
HI HI AE 07 88 55 00 D4 00 00 09 00 82 9B 00 87 88 87 92 7E 92 8F 91 93 8F 
HI HI AE 07 88 55 00 D4 00 00 09 00 78 98 00 88 88 86 92 78 92 8F 91 93 8F 
HI HI AE 07 88 55 00 D4 00 00 09 00 8E 95 00 88 87 86 92 7D 93 8F 91 94 8F 
HI HI AE 07 88 55 00 D4 00 00 09 00 92 92 00 87 87 86 92 9F 93 90 91 94 8F 
HI HI AE 07 88 55 00 D4 00 00 09 00 96 8E 00 8A 87 86 91 65 93 90 92 94 8F 
HI HI AE 07 88 55 00 D4 00 00 09 00 97 8B 16 7B 88 86 92 6A 93 90 92 94 8F 
HI HI AE 07 88 55 00 D4 00 00 09 00 98 8A 5B 5A 8B 89 96 74 94 90 92 94 8F 
HI HI AE 07 88 55 00 D4 00 00 09 00 98 88 5A 5B 8C 8A 96 6F 94 91 92 95 8F 
HI HI AE 07 88 55 00 D4 00 00 09 00 88                97    94 91 92 95 8F 
HI HI AE 07 88 55 00 D4 00 00 09 00 98             8B 98 79 94 91 93 95 8F 
HI HI AE 07 88 55 00 D4 O0 00 09 00 94 86 54 5E 8E 8C 99 78 94 92 93 95 8F 
HI HI AE 07 88 55 00 D4 00 00 09 00 92 87 53 5D 8F 8C 99 8E 94 92 93 95 8F 
HI HI AE 07 88 55 00 D4 00 00 09 00 90 89 53 5D 8F 8D 9A 64 94 92 94 95 8F 
HI HI AE 07 88 55 00 D4 00 00 09 00 8E 8B 52 5D 8F 8D 9A 85 95 92 94 95 8F 
HI HI AE 07 88 55 00 D4 00 00 09 00 8C 8F 55 5C 90 8D 9B 84 95 92 94 96 8F 
HI HI AE 07 88 55 00 D4 00 00 09 00 8A 92 5C 58 90 8E 9B 6C 95 92 94 96 8F 
HI HI AE 07 88 55 00 D4 00 00 09 00 88 95 5E 56 91 8E 9C 6B 95 93 94 96 8F 
HI HI AE 07 88 55 00 D4 00 00 09 00 87 99 64 54 91 8F 9C 7C 95 93 95 96 8F 
HI HI AE 07 88 55 00 

AS26194C  06Dec2001
20:31-20:48(JST)
FREQ.  435.802-.786MHz

HI HI AE 07 88 55 00 D4 00 00 09 00 9C 81 00 88 89 88 93 86 8F 8E 8F 8E 8D 
HI HI AE 07 88 55 00 D4 00 00 09 00 A5 81 00 88 89 88 94 80 8F 8E 8F 8E 8D 
HI HI AE 07 88 55 00 D4 00 00 09 00 A8 7C 00 88 88 87 93 64 8F 8E 8F 8E 8D 
HI HI AE 07 88 55 00 D4 00 00 09 00 A5 74 00 88 88 87 93 68 90 8F 8F 8E 8D 
HI HI AE 07 88 55 00 D4 00 00 09 00 90 61 00 87 88 87 92 72 90 8F 8F 8F 8D 
HI HI AE 07 88 55 00 D4 00 00 09 00 7E 58 00 89 88 87 92 6E 90 8F 8F 8F 8D 
HI HI AE 07 88 55 00 D4 00 00 09 00 6C 52 00 88 87 86 92 7E 90 8F 90 8F 8C 
HI HI AE 07 88 55 00 D4 00 00 09 00 59 50 00 88 87 86 92 6D 90 8F 90 8F 8C 
HI HI AE 07 88 55 00 D4 00 00 09 00 49 53 0B 81 87 86 92 73 91 90 90 8F 8C 
HI HI AE 07 88 55 00 D4 00 00 09 00 3C 5D 4F 61 8A 88 94 74 91 90 91 8F 8C 
HI HI AE 07 88 55 00 D4 00 00 09 00 36 68 55 5E 8B 8A 96 74 91 90 91 8F 8C 
HI HI AE 07 88 55 00 D4 00 00 09 00 35 76 5C 59 8D 8B 97 65 91 90 91 90 8C 
HI HI AE 07 88 55 00 D4 00 00 09 00 3A 86 62 55 8E 8C 99 6E 91 91 91 90 8C 
HI HI AE 07 88 55 00 D4 00 00 09 00 44 94 63 56 8F 8D 9A 8A 92 91 91 90 8C 
HI HI AE 07 88 55 00 D4 00 00 09 00 51 9F 63 56 90 8E 9B 75 92 91 92 90 8D 
HI HI AE 07 88 55 00 D4 00 00 09 00 5E A5 6B 52 91 8F 9C 4D 92 91 92 91 8D 
HI HI AE 07 88 55 00 D4 00 00 85 00 69 A5 71 50 91 8F 9D 67 92 92 92 91 8D 
HI HI AE 07 87 55 00 D4 00 00 09 00 70 9F 71 5E 90 8E B0 6E 93 92 92 92 8D 
HI HI AE C7 88 55 00 D4 00 00 09 00 72 96 70 5F 90 8E B0 83 93 92 92 91 8D 
HI HI AE C7 88 55 00 D4 00 00 89 00 6E 8B 6B  

------------------------ FO-29の軌道要素 ------------------------------        
 
  ■ 軌道要素1:「jamsat−keps:1055」より         
          SB KEPS @ AMSAT  $ORB01340.N
          2Line Orbital Elements 01340.AMSAT

HR AMSAT ORBITAL ELEMENTS FOR AMATEUR SATELLITES IN NASA FORMAT
FROM WA5QGD FORT WORTH,TX December 6, 2001
SEND SUBSCRIBE/UNSUBSCRIBE TO majordomo@amsat.org ONLY
BID: ORB01340.N

 DECODE 2-LINE ELSETS WITH THE FOLLOWING KEY:
 1 AAAAAU 00  0  0 BBBBB.BBBBBBBB  .CCCCCCCC  00000-0  00000-0 0  DDDZ
 2 AAAAA EEE.EEEE FFF.FFFF GGGGGGG HHH.HHHH III.IIII JJ.JJJJJJJJKKKKKZ
 KEY: A-CATALOGNUM B-EPOCHTIME C-DECAY D-ELSETNUM E-INCLINATION F-RAAN
 G-ECCENTRICITY H-ARGPERIGEE I-MNANOM J-MNMOTION K-ORBITNUM Z-CHECKSUM

FO-29
1 24278U 96046B   01339.12287347  .00000098  00000-0  13924-3 0  4611
2 24278  98.5152 180.9470 0350089 278.7565  77.4077 13.52800908261758

 ■ 軌道要素2:「jamsat−keps:1056」より
        SB KEPS @ AMSAT  $ORB01340.O
        Orbital Elements  01340.OSCAR

HR AMSAT ORBITAL ELEMENTS FOR OSCAR SATELLITES
FROM WA5QGD FORT WORTH,TX December 6, 2001
SEND SUBSCRIBE/UNSUBSCRIBE TO majordomo@amsat.org ONLY
BID: ORB01340.O
TO ALL RADIO AMATEURS BT

Satellite: FO-29
Catalog number: 24278
Epoch time:      01339.12287347
Element set:     461
Inclination:       98.5152 deg
RA of node:       180.9470 deg
Eccentricity:    0.0350089
Arg of perigee:   278.7565 deg
Mean anomaly:      77.4077 deg
Mean motion:   13.52800908 rev/day
Decay rate:        9.8e-07 rev/day^2
Epoch rev:           26175
Checksum:              336

-------------------  FO-29(JAS-2)のテレメトリに関する情報  ---------------------- 
 
2)上記12月8日(土)のテレメトリの最終行を分析しておきます.

AS26215C  08Dec2001
9:19-9:24(JST)
FREQ. 435.795-.792MHz

HI HI AE C7 88 55 00 D4 C0 53 09 03 8B 6F 6E 64 9E 9A B0 95 93 93 93 99 93 

テレメトリ   内 容        換算数値 単 位
3C	磁気センサーZ軸=	68137.2	[nT]
3D	磁気センサX軸	=	54411.8	[nT]
4A	太陽電池発生電流=	 1078.4	[mA]
4B	B充放電電流	=	  -40.0	[mA]
4C	B端子電圧	=	   17.0	[V]
4D	B中間端子電圧	=	    7.4	[V]
5A	バス電圧	=	   17.3	[V]
5B	JTA送信電力	=	  870.4	[mW]
5C 	構体温度1	=	   24.8	[℃]
5D	構体温度2	=	   24.8	[℃]
6A	構体温度3	=	   24.8	[℃]
6B	構体温度4	=	   22.5	[℃]
6C	Bセル温度	=	   24.8	[℃]

 ========================== FO-29(ふじ3号)のQSO情報等 =====================
   
 3)[jamsat-bb:

 ===============================================================================
   4)JARL のホームページに運用予定が記載されていましたのでご紹介します.
       ( http://www.jarl.or.jp/Japanese/3_Fuji/new/uy.htm )
       
        ふじ3号(JAS−2)の運用          

       *** 運用予定について ***

  平成13年      平成14年
 12月4日(火) 〜 3月31日(日)アナログ系運用

  *なお,運用予定は都合により,変更することがありますので,
   あらかじめご了承願います。

 照会先 : lab@jarl.or.jp

 最新の情報はテレホンサービス(03−3942−1000)をお聞きください。  
 以後の運用につきましては平成14年4月上旬にお知らせいたします 
     
-----------------------    FO−20(JAS-1b)道要素   -------------------------
  
  ■ 軌道要素1 :出典はFO-29「ふじ3号」に同じ.  
FO-20
1 20480U 90013C   01338.67361656  .00000033  00000-0  15471-3 0 03825
2 20480 099.0359 015.0687 0540003 283.1892 070.9520 12.83303480553966
 
  ■ 軌道要素2 :出典はFO−29「ふじ3号」に同じ.
               
Satellite: FO-20
Catalog number: 20480
Epoch time:      01338.67361656
Element set:    0382
Inclination:      099.0359 deg
RA of node:       015.0687 deg
Eccentricity:    0.0540003
Arg of perigee:   283.1892 deg
Mean anomaly:     070.9520 deg
Mean motion:   12.83303480 rev/day
Decay rate:        3.3e-07 rev/day^2
Epoch rev:           55396
Checksum:              291

 -------------------------------------------------------------------------------- 
         ■ ふじ2号/FO−20/JAS-1b ■      
            
          「ふじ2号」 現況                                                                                  
             
   JAS-1b(ふじ2号)のCWテレメトリ信号に,1997年10月12日12時(JST)の
 日本上空通過時,3桁の数字が繰り返されるはずが3個の長音の繰り返しとなっているという
 異常が発見されました。この不具合は次の通過時からは回復していましたが13日15時20分の
 通過時に再び観測されました。現在はA0の送信が続いています。衛星のアナログ系中継モード
 動作は異常が無く,正常時のテレメトリ内容からは衛星の動作に異常は認められません。従って,
 直ちに衛星のミッションに影響することは無いと予想されますので,当面はアナログ系中継
 モードを継続します。衛星は既に打ち上げてから7年8ヶ月を経ておりますので,今後は監視を
 強化する予定です。アマチュア各位のレポートをお待ちします。
 -------------------------------------------------------------------------------- 
  1997年10月14日 00時35分 確認のテレメトリ音 151 KB (A0) 
  1997年10月14日 11時10分 確認のテレメトリ音 216 KB (異常キーイング) 

  以上 JARLのホ−ムページの http://www.jarl.or.jp/Japanese/3_Fuji/new/fuji.htm

===================== FO-20 ふじ2号 のテレメトリ観測結果 ====================

  10月27日(土)11:33(JST)の観測結果ではテレメトリは、以前観測した単一周波数の
ドップラー効果で周波数がずれていくのみの状態でした。
                                         
   =============   JAS-2 (ふじ3号)と現在までの情報   ===========
  
  A.電話によるふじ3号の運用情報
      社団法人日本アマチュア連盟によるサービス
           TEL .   03− 3942 − 1000
  B.アマチュア無線FAXサービス
      JARLによるふじ3号の軌道情報(オービットカレンダー)
         FAX No.  03− 3233 −0055
  C.WWWブラウザで情報を簡単に見れる人のためにJAS−2
     ふじ3号の衛星としての運用されるまでの名前)の概要、打ち上げ
     までの状況、運用中における状況を説明したホームページを紹介し
     ておきます.
     社団法人日本アマチュア無線連盟(JARL)のホームページ

          http://www.jarl.or.jp/Japanese/3_Fuji/jasmenu.htm
 
     宇宙開発事業団(NASDA)ホームページ 
          http://www.nasda.go.jp/
         打上げ衛星 :地球観測プラットフォーム技術衛星(ADEOS) 
                       アマチュア衛星3号(JAS-2)
          http://spaceboy.nasda.go.jp/note/eisei/j/Eis15h_j.html#Eis15h_01_j
     http://spaceboy.nasda.go.jp/note/eisei/j/Eis15i_j.html        

  D.JAMSATによる軌道情報の活用
        JAMSATのホームページまたはjamsat−kepsの軌道要素より
      衛星の軌道情報を得る.
     JAMSATホームページ
               URL    http://www.jamsat.or.jp
       上記ホームページでは各地で行われるアマチュア通信衛星に関する
      ミューティングのお知らせや世界のアマチュア衛星に関する情報が
      満載されています.

 ========================================================================  
     JAMSATのメンバーのご協力によりJH6MME(高山 秀造)が
    執筆・編集を担当しております.ご指摘の意見、疑問やこのようにしたら
    というアイデアがありましたら小さなことでもかまいませんので気軽に下
    記アドレスまでご連絡ください.jamsat−newsからjas2
    infoへの転載をJH4PHW局坂井さんに担当して頂いております.  
                  E-mail : jh6mme@jamsat.or.jp : jh4phw@jamsat.or.jp
 ===============================   END  ===============================